GFSSE_con_mlcape_159.txt.gz
CAPE
9 508 807 1098 954 941 585 891 876 934 858 919 985 999 891 1024 1084 1204 778 938 798 820 685 616 665 689 832 1410 1673 1602 1375 1208 1320 1686 1799 1874 2221 2135 2276 2291 2381 2108 2305
65 534 1059 1072 990 953 496 682 925 1049 558 768 1009 1130 1094 890 1300 1428 1526 1259 1170 1192 1557 1320 1058 972 912 789 888 1075 1164 1332 1327 1767 1827 1986 1991 2026 2468 2300 2357 2256 2459
223 783 928 877 1012 900 563 726 1262 1016 750 304 631 1444 1304 1473 1326 1499 1092 1192 1308 1341 1367 1393 1380 1401 1494 1393 1386 1329 1665 1619 1658 2091 2096 1831 1820 2214 2412 2308 2355 2314 2425
392 678 868 847 1151 966 653 274 721 1131 966 80 94 1525 1722 1353 1334 1101 1406 1449 1454 1316 1313 1471 1611 1501 1390 1554 1532 1578 1528 1951 1998 1653 1228 1624 2061 2197 1991 1977 2216 2450 2529
256 633 903 1140 1317 965 766 583 655 815 1253 1013 1118 1519 1512 1271 1064 1107 1216 1125 983 984 1036 797 766 501 549 684 775 835 1061 1439 1850 1834 1397 989 1478 1988 2153 2109 2043 2097 2212
151 384 1235 1003 1067 909 741 824 985 1286 1208 1098 1247 1277 1421 1164 1231 1204 988 842 838 800 717 940 718 290 159 187 162 281 542 844 1400 1680 1801 1250 1235 1828 2292 2523 2401 2144 2117
35 303 999 1173 1185 863 473 776 909 1217 1439 1423 1294 1083 1147 1394 1337 1099 899 743 932 1214 983 804 766 224 172 109 361 418 575 1525 1635 829 1134 1472 1560 2507 2581 2586 2337 2210 2392
27 63 454 1057 1124 986 547 858 1059 1336 1310 1381 1228 1095 1347 1219 1067 1077 860 716 819 1248 1376 988 723 756 513 490 630 678 970 1870 570 741 1070 1252 1162 1721 1969 1991 1634 1372 1665
6 1 209 408 831 929 842 1022 1185 1271 1456 1335 1331 1274 1314 1254 988 824 925 800 737 805 937 972 910 954 815 720 1033 1534 1515 1754 1041 196 206 145 394 909 1219 1207 1224 1310 1387
0 0 24 86 224 467 611 490 684 947 1166 1172 941 1012 1177 974 869 950 879 745 1105 1055 914 821 837 794 785 875 1081 1533 2042 2082 1458 1116 397 220 648 1334 1854 1882 1892 2020 2097
0 1 19 37 77 85 54 47 214 529 912 1086 1099 1250 868 341 301 286 523 694 1057 1439 1398 1443 1558 1467 977 965 898 940 1158 937 1501 795 558 492 851 1622 1700 1880 1959 2213 2300
0 2 7 17 45 34 54 51 56 239 476 418 321 401 278 243 243 413 834 918 1404 1342 1441 1316 1135 1359 1418 1024 983 841 747 1067 1544 1211 561 562 877 1533 1830 1760 2000 2108 2229
0 0 0 5 31 31 49 39 36 75 122 73 120 126 158 299 368 362 324 228 99 182 200 451 460 577 266 365 316 292 376 500 676 684 451 523 743 1432 1818 1810 2430 2552 1948
0 0 0 0 7 34 35 2 39 82 14 60 165 237 227 311 272 157 82 111 90 212 425 801 528 109 277 289 275 213 168 75 119 354 790 773 1161 1887 1562 1338 1880 1818 1888
11 6 0 0 6 44 23 89 241 189 142 123 279 85 398 293 157 62 10 0 135 87 374 678 268 201 182 319 151 68 12 54 0 25 336 856 1301 1472 1388 1056 1703 1850 1548
0 2 1 0 2 13 22 61 212 319 105 0 172 0 225 239 294 80 67 101 73 12 396 607 528 320 28 52 357 8 7 1 0 2 77 668 885 1016 950 1149 1641 1868 1558
0 0 0 0 0 0 5 69 139 194 271 87 179 182 149 0 4 3 31 31 0 27 418 579 504 469 146 106 169 77 10 0 0 109 89 692 908 995 908 1284 1459 1889 1837
0 0 2 0 12 14 50 117 155 177 99 90 169 113 103 0 1 0 13 0 12 26 384 374 473 443 198 0 20 0 23 22 241 131 222 420 1176 1086 1143 1488 1420 1949 1274
0 0 0 17 54 50 94 184 193 66 0 105 194 212 276 0 1 0 0 0 16 23 292 397 500 235 32 3 0 13 10 33 49 204 291 359 505 697 910 1454 1272 1475 1339
0 0 0 28 170 215 263 153 129 79 356 270 345 383 414 113 12 11 0 0 0 0 233 362 439 247 127 15 1 0 0 1 33 70 122 235 308 864 921 1085 723 1362 983
0 7 11 45 146 307 154 60 76 246 342 307 307 369 173 121 9 19 0 3 0 1 278 460 309 222 117 10 0 0 0 15 0 0 51 118 368 251 454 762 826 979 835
7 5 25 61 120 283 132 28 166 252 473 173 77 198 309 273 204 0 2 0 0 116 462 643 193 41 19 47 142 10 58 60 121 1 8 32 0 105 81 0 398 529 640
158 122 111 96 221 274 324 233 309 156 302 342 4 177 541 600 393 8 8 0 0 31 471 632 789 475 605 330 82 286 155 127 142 0 0 0 0 12 78 0 0 74 575
299 279 229 293 294 301 468 403 335 273 242 297 495 570 558 933 644 172 0 0 12 79 410 950 1508 1219 896 661 294 5 16 203 110 0 0 0 0 4 8 0 0 0 147
383 254 296 396 392 466 502 503 478 331 112 170 487 649 446 673 556 396 134 222 359 475 554 922 1157 1135 1011 859 896 192 6 12 0 0 0 2 0 109 28 1 0 0 0
168 180 386 328 436 566 568 309 302 282 301 258 481 509 542 344 513 589 406 353 368 571 851 973 1269 1022 1017 887 805 444 293 397 191 30 47 0 0 13 40 5 0 0 0

GFSSE_con_mlcape_162.txt.gz
CAPE
10 346 916 1144 880 949 883 818 1071 946 952 859 792 825 1021 1212 1252 508 530 410 575 671 721 844 941 1134 1009 1469 1679 1669 1471 1489 1431 1700 2145 2373 2372 2533 2529 2538 2232 2176 2605
11 480 839 1057 690 982 568 980 1012 957 847 1091 1156 1012 968 1070 1492 1339 1324 1101 1028 1047 728 720 732 573 873 1255 1353 1203 1187 1355 1550 1821 2036 2209 2331 2456 2463 2553 2534 2520 2607
171 639 947 810 769 767 630 970 1188 799 830 833 983 1128 1244 1471 1183 1185 1106 1362 1520 1330 1392 1219 972 1071 953 981 1012 1249 1375 1615 2062 2224 1990 1859 2262 2591 2306 2404 2681 2523 2613
384 787 740 943 1050 612 768 505 468 898 527 560 637 1249 1387 1148 1180 1365 1342 1511 1522 1306 1035 1311 1457 1559 1308 1223 1457 1451 1477 1704 1802 1596 1344 1835 2168 2532 2118 2345 2489 2482 2455
500 722 814 1081 1216 521 275 229 226 928 423 326 1132 1206 1383 1243 1424 1172 1396 1177 1143 1139 926 1018 748 838 1008 959 1082 1152 1119 1253 1589 1394 1135 1233 1854 2167 1984 2004 2145 2299 2391
375 654 1238 1057 1134 542 95 123 145 807 766 1430 1413 1066 1243 1265 1401 1077 914 886 881 800 985 978 503 440 524 383 294 410 620 1100 1436 1511 1590 1090 1193 1843 2120 2098 1961 1872 1829
129 561 857 1149 1121 584 349 320 630 1281 1320 1316 1215 1331 1123 1589 1258 1045 893 979 1214 1235 848 911 804 705 656 769 762 718 1174 1849 1052 752 1034 1505 1389 2019 2292 2440 2429 2372 2263
26 242 747 1153 1017 627 672 501 916 853 1021 1167 989 735 1349 1267 1208 1154 976 915 1093 1322 1308 1150 1092 964 859 1054 1200 1390 1482 1484 469 640 925 1240 1398 1532 1660 1806 2089 2046 2089
12 29 319 626 944 1003 954 351 1031 1242 1058 877 978 1144 1297 1341 1144 1118 1151 1093 1025 964 951 983 1040 953 990 1198 1302 862 848 1200 909 335 303 458 130 778 1218 1234 1213 1174 1247
0 0 121 158 327 471 515 469 891 1306 1133 1240 789 887 1193 1068 1058 1093 749 727 1493 1397 1406 1433 1458 1194 968 570 602 869 1118 1039 996 905 491 270 363 978 1859 1846 1781 1799 1933
0 0 10 32 77 158 179 660 619 1076 1159 715 969 1363 624 254 247 236 560 892 1386 1772 1909 1552 1540 1203 639 886 841 837 710 709 679 915 658 441 514 1121 1808 1896 1612 1982 1959
0 0 0 7 2 24 29 56 82 352 361 242 210 237 172 156 276 760 697 820 662 542 548 969 690 543 535 421 571 403 286 347 354 381 734 740 790 1172 1290 1930 1735 2061 2119
0 0 0 0 21 47 43 45 41 77 84 41 86 140 191 234 319 305 158 321 150 388 656 503 300 215 311 321 300 221 151 13 7 154 209 623 1401 1032 1401 1899 1834 2389 2255
0 0 0 0 12 32 54 8 6 86 8 118 185 180 192 261 228 88 93 73 219 346 563 290 236 193 325 266 166 119 84 25 0 57 38 183 1091 1537 1394 1073 1322 1714 1777
0 0 0 0 0 2 10 17 190 114 128 166 222 27 338 182 52 15 0 145 173 310 490 288 264 272 275 281 158 51 4 4 17 0 7 116 750 1139 849 987 964 1602 1423
1 0 0 0 1 0 0 51 207 226 73 52 114 0 159 228 234 16 14 115 116 253 519 424 304 192 135 89 169 26 0 4 0 0 44 316 593 969 884 1046 1024 1580 1406
8 5 0 0 0 3 6 33 115 201 206 154 59 172 41 0 19 0 16 43 63 202 417 518 404 220 75 112 181 112 0 21 0 0 159 325 635 1107 1033 1160 1245 1753 1138
0 0 0 0 0 4 0 43 101 148 117 90 87 105 57 0 0 0 0 22 2 225 348 382 405 415 191 44 35 56 29 40 35 217 281 258 650 1227 1086 1259 1312 1630 777
0 0 0 0 1 4 23 61 168 130 38 76 106 127 93 73 0 0 0 0 1 171 282 332 453 121 82 2 0 0 37 72 116 124 252 315 470 860 1048 1381 1324 1392 1219
0 0 0 0 14 39 84 147 115 41 135 183 146 220 217 114 0 0 0 0 0 0 279 320 351 170 30 7 0 4 0 28 27 58 164 261 537 707 918 1203 1070 1306 1115
0 0 0 0 17 144 130 139 94 94 261 225 197 365 195 118 13 0 0 0 0 4 332 422 246 189 88 0 0 0 0 45 11 64 148 254 359 402 617 839 816 974 857
0 0 0 0 0 138 129 74 55 146 186 195 196 74 350 148 196 19 2 0 0 201 568 553 164 74 18 21 202 79 60 58 113 18 86 38 31 199 15 363 500 660 642
0 0 0 0 0 73 174 51 120 171 264 277 40 74 131 414 265 0 4 0 0 90 498 794 766 552 631 307 92 313 205 153 154 0 0 0 0 111 0 0 0 417 780
44 0 0 0 0 37 230 181 168 130 120 170 86 47 358 588 641 159 0 0 0 139 479 839 1366 1053 731 670 280 65 38 155 79 0 0 0 1 49 0 0 0 2 556
92 87 62 53 30 75 232 313 229 125 70 84 243 458 390 539 742 431 83 113 285 362 529 864 1014 1075 924 759 705 182 40 38 0 0 3 0 17 141 3 43 0 0 0
182 186 139 114 155 184 253 344 275 258 214 165 205 364 487 353 399 570 391 276 341 478 759 873 1048 910 1020 902 808 284 353 446 377 109 113 7 25 4 27 10 0 0 0

GFSSE_con_mlcape_165.txt.gz
CAPE
115 812 917 972 543 938 764 606 898 869 1060 730 853 1143 1273 1345 682 609 483 611 715 1041 1158 1213 1077 1062 1550 1509 1299 1738 1761 1477 1388 2112 2193 2257 2334 2466 2597 2463 2254 2374 2879
100 710 1179 965 946 557 449 804 1001 1065 981 921 880 962 1110 1267 1209 1144 993 998 608 550 757 685 691 1371 1614 1610 1254 1186 1424 1502 1804 1939 2029 1800 2191 2456 2537 2535 2198 2463 2844
210 633 1083 1060 1062 611 527 866 945 1019 602 755 1074 959 1307 1400 1388 1075 960 1054 1071 1250 1153 839 904 821 844 991 1168 1342 1503 1827 1828 2113 1900 1781 1988 2295 2378 2606 2621 2665 2799
611 847 1046 957 881 689 456 412 1088 967 198 127 308 694 1097 780 1277 1362 1105 738 881 868 1025 950 1218 1338 1413 1550 1353 1397 1298 1276 1373 1231 1382 1731 1856 2314 2194 2427 2518 2568 2591
899 1029 1018 927 759 337 320 298 442 512 82 66 298 233 899 1478 878 732 812 1026 1101 1061 1030 757 1022 1011 1097 909 578 731 910 1137 1193 1500 1534 1417 1438 1825 1927 2105 2180 2465 2353
715 894 1009 905 492 396 238 347 163 139 66 253 824 1379 1222 668 802 642 711 643 691 844 761 507 590 710 586 571 736 782 1084 1037 1136 1569 1980 1523 1318 1845 2039 1996 1748 1847 2007
529 982 890 598 551 261 0 39 0 234 63 371 999 1074 1077 1071 836 759 903 1238 939 663 820 783 734 759 1002 863 673 588 1101 1158 894 1342 1418 1943 1807 1859 2186 2087 2287 2114 1963
231 820 944 521 454 260 0 39 131 356 483 808 665 1073 1223 1160 1001 899 948 980 1090 1115 1094 974 872 1012 1073 776 943 965 1248 1334 630 386 1026 1633 1460 1536 1806 1875 1806 1970 1853
73 222 464 824 479 145 340 81 229 666 397 721 944 1406 1345 1024 1027 1140 1219 1249 1134 1071 1042 1020 1050 962 973 544 1082 1059 1095 1207 1123 1043 565 535 148 373 1161 1319 1288 1299 1377
8 80 217 389 466 368 102 151 250 832 563 946 1134 1340 1101 1054 981 725 556 1166 1520 1493 1595 1669 1658 1279 895 891 929 797 755 842 925 1064 1128 763 441 612 1216 1867 1788 1682 1722
1 14 174 212 308 340 391 503 1208 1436 1261 885 1002 767 286 249 269 433 868 1286 1568 1581 1147 1101 927 824 690 861 766 699 527 460 356 560 1087 916 1115 1138 1575 1357 1353 1849 1802
15 0 54 125 148 70 183 141 266 283 315 410 466 330 276 336 986 820 690 303 345 364 535 587 630 785 625 1034 1128 629 242 78 70 85 382 420 967 1765 1553 1675 1670 2132 2298
15 10 15 38 21 30 28 37 40 82 124 198 368 539 381 476 633 473 516 408 665 872 1392 1121 759 838 902 925 559 485 123 33 25 74 245 234 623 1505 1985 1560 1877 2171 2249
0 0 0 25 22 43 45 4 22 111 135 460 385 427 531 651 481 241 325 402 687 1157 1069 846 709 832 485 228 113 137 27 1 42 95 219 112 634 1372 1456 1171 1229 1273 1717
0 0 0 5 9 32 14 24 260 174 345 539 473 304 759 357 187 145 126 460 576 1011 1031 864 693 719 546 256 191 119 21 122 127 149 135 250 775 1101 1145 1103 1104 1523 1629
0 0 0 0 2 12 5 56 334 163 58 206 313 143 468 608 411 165 239 343 355 908 1266 950 915 878 633 336 666 375 78 96 159 139 568 890 763 1091 1198 1198 1132 1548 1615
0 0 0 0 1 0 3 30 139 198 425 446 278 324 204 51 261 157 152 197 328 680 921 1168 988 792 337 469 482 421 198 357 249 252 936 1145 1244 1373 1210 1283 1264 1665 969
7 0 0 0 2 7 15 80 147 225 411 355 304 293 239 54 30 154 104 132 79 573 1057 1116 1070 1161 775 354 168 242 261 292 383 617 760 985 1281 1756 1429 1399 1274 1606 953
3 0 0 0 1 0 18 129 325 391 217 236 339 354 322 261 36 30 12 52 106 526 849 941 1047 436 368 147 149 235 243 130 240 316 730 1117 1318 1422 1886 1471 1224 1139 1293
0 0 0 0 1 15 83 271 404 252 236 406 496 617 515 443 0 69 59 38 137 100 776 933 743 456 233 246 122 143 83 285 137 176 207 879 1485 1580 1762 2212 1828 1283 869
0 0 0 0 10 76 177 366 330 242 551 695 590 917 713 450 218 68 0 13 102 81 828 1024 673 492 383 136 76 42 113 323 222 340 652 824 1127 1141 1583 1827 1725 1476 860
0 0 0 0 1 154 386 380 338 396 628 802 651 584 836 469 554 305 191 95 6 646 1086 1147 593 401 347 360 615 172 396 406 524 451 541 393 549 867 486 1307 1462 1560 1090
42 0 0 0 0 30 437 357 256 448 605 582 368 476 446 803 643 145 160 50 4 340 1148 1582 1587 1170 1213 662 379 905 710 359 771 237 168 158 50 787 82 80 721 1530 1372
90 43 0 0 0 19 212 478 313 308 519 539 398 277 640 1149 1101 539 89 28 6 642 1226 1659 2154 1769 1407 1351 897 157 465 599 603 81 76 130 143 487 151 203 229 763 1323
135 84 2 0 0 17 186 479 449 559 464 485 713 535 941 1214 1296 770 397 506 710 910 1140 1499 2026 1916 1704 1419 1392 631 518 408 82 168 290 277 358 786 88 412 212 388 846
186 139 140 87 15 153 206 523 570 595 511 456 620 807 1065 955 978 1044 927 826 913 1029 1434 1726 1794 1601 1794 1597 1458 922 1061 964 803 628 354 416 445 412 586 489 465 31 351

GFSSE_con_mlcape_168.txt.gz
CAPE
265 810 1000 738 837 612 558 916 1060 915 835 1194 1170 1104 1411 1120 1000 722 630 749 1407 1350 989 951 1196 1759 1439 1326 1324 1618 1272 1200 1906 2157 2250 2314 2238 2441 2340 2001 1980 2108 2820
340 785 1137 781 1029 669 702 1038 781 1003 896 842 983 1149 1298 495 677 566 751 652 978 1034 808 1180 1652 1812 1658 1410 1208 1346 1404 1761 1782 1975 1677 1906 2340 2398 2394 1966 2055 2468 2764
180 795 1219 1041 892 735 1039 999 816 681 913 926 934 960 1398 1146 1069 932 1229 1431 1429 837 851 890 801 841 936 1170 1237 1354 1567 1669 1939 1463 1571 1504 1891 2203 2453 2429 2337 2638 2663
134 850 1118 817 769 668 712 967 758 418 207 171 598 1020 776 869 1326 1276 1127 1103 1275 1347 1218 1375 1542 1488 1631 1504 1414 1338 1239 1406 1088 1204 818 1104 1513 2008 2320 2368 2494 2619 2581
602 930 1129 1122 743 511 601 540 751 250 178 2 28 174 1054 998 437 691 901 1192 1242 1189 1120 1274 1159 1226 988 777 759 884 889 1057 977 1376 1372 1072 1323 1394 1961 2051 2164 2175 2327
729 923 782 1013 680 546 699 340 245 161 69 0 175 845 506 491 723 680 669 755 1041 768 631 848 886 765 657 710 580 790 817 1030 1266 1219 1795 1220 1236 1370 1917 1716 1438 1960 1886
573 895 749 648 645 506 109 62 265 120 183 163 633 288 447 723 737 1118 1241 664 631 630 635 792 801 861 891 666 703 1100 1236 891 1070 1070 1339 1469 1648 1566 2118 1964 1959 1872 1715
609 790 479 401 207 22 0 30 271 0 69 139 676 864 1057 937 926 1050 1173 1304 954 844 739 710 801 939 789 830 844 1073 1255 1009 936 872 1220 1513 808 1145 1714 1731 1826 1751 1784
334 525 658 482 113 6 147 93 70 160 201 252 698 1129 1017 1051 1112 1264 1255 1074 1016 1005 973 933 891 953 766 833 869 986 1223 1236 1205 1426 947 897 447 590 959 1574 1426 1441 1449
142 375 466 493 430 110 0 0 170 178 314 589 1343 1365 1095 1138 782 495 810 1535 1386 1382 1397 1420 1118 702 648 858 829 908 983 1351 1398 1542 1443 1146 783 951 1236 1479 1647 1662 1805
46 91 291 389 334 159 0 4 3 398 889 592 631 492 388 236 406 703 742 1320 1621 1663 1385 1475 1108 898 1110 1286 1013 1111 1114 583 384 438 674 605 1140 1409 1596 1859 1688 1660 2170
18 80 265 376 272 177 23 40 440 581 277 446 225 289 158 375 716 432 462 560 360 523 797 1226 1432 1553 1015 1309 1541 1000 749 314 317 209 444 497 1055 1608 1859 1796 1968 2212 2397
33 110 304 306 203 126 81 143 255 174 102 368 836 419 373 609 476 309 502 545 1330 1174 1582 1188 1423 1665 1292 1318 1041 684 118 108 118 157 296 425 1057 1609 1954 1752 1557 1601 2179
55 105 203 197 157 53 84 39 365 175 286 227 605 880 920 531 571 524 799 1234 1719 1598 1762 1662 1211 1465 1030 711 458 342 22 210 201 428 487 472 1011 1349 1415 1366 1386 1506 1977
57 48 86 97 141 117 33 245 539 453 540 378 516 1424 685 367 727 610 1000 1264 1447 1820 1644 1775 1654 1603 1233 636 641 867 360 477 419 557 595 580 903 1213 1299 1401 1391 1714 1799
34 40 80 39 129 93 25 716 737 862 444 697 557 1055 1459 1122 1103 665 1061 1097 1147 1618 1805 1820 1956 1769 1601 918 1148 524 332 307 807 906 1054 1307 816 1110 1244 1355 1471 1732 1456
52 7 2 5 44 99 90 369 686 470 769 623 530 940 914 993 1118 962 724 908 1125 1610 2160 2206 2081 1958 1284 967 823 734 631 743 943 1580 1501 1429 1614 1316 1132 1375 1459 1271 932
11 0 0 0 0 17 82 135 377 495 796 614 413 600 694 437 655 1012 608 720 709 1591 1838 1773 1809 1575 1440 787 462 772 696 846 835 1384 1352 1539 1662 1663 1390 1365 1326 1414 1343
1 0 0 0 0 12 6 84 635 911 695 571 434 691 1024 849 381 609 415 502 892 1374 1580 1539 1765 1286 980 558 426 491 474 721 330 733 1041 1635 1690 1490 1634 1438 1084 905 1336
0 0 0 0 15 70 62 618 733 538 398 776 678 770 1317 564 201 554 368 434 674 577 1546 1723 1778 1252 834 784 301 330 353 910 922 827 748 1318 1742 1720 1429 1800 1575 1256 480
0 0 0 12 40 61 227 587 492 138 407 835 772 1526 1351 1332 1186 803 316 338 564 450 1776 2132 1552 1425 1167 991 841 479 570 779 593 946 1414 1430 1633 1153 1485 1771 1482 1374 1023
0 0 0 20 82 280 605 938 831 777 607 865 821 1480 1319 969 1424 966 639 650 516 1014 2058 2095 1982 1197 1215 1281 1245 1016 782 940 890 804 732 985 1353 1237 985 1369 1457 1673 1304
9 5 7 56 88 237 825 1076 1080 937 1106 866 792 884 1160 1394 1520 1184 926 742 496 1271 1768 2114 2283 2042 1386 1517 1503 1266 813 475 1053 498 438 673 499 755 567 539 942 1564 1448
122 39 27 68 59 124 910 721 837 740 508 92 279 607 932 1517 1696 1343 752 478 268 1385 1952 2084 1913 1986 1811 1346 1603 804 1328 1082 792 459 421 477 515 638 886 614 753 1298 1528
264 181 101 54 59 54 397 846 825 430 255 467 746 1032 1148 1699 1980 1475 1276 1183 1048 1667 2010 1755 1641 1984 1741 1369 1341 1211 1700 1160 908 733 423 728 848 1062 784 550 620 874 1351
264 272 281 189 188 367 543 939 1155 872 918 743 640 844 721 633 1235 1750 1616 1725 1820 1962 1913 1689 1597 1960 2016 1668 1346 1234 1104 1254 1236 913 377 535 769 953 958 1016 762 698 984

GFSSE_con_mlcape_174.txt.gz
CAPE
804 573 727 772 921 1227 1168 981 1147 991 1166 981 1160 1206 1130 878 793 1076 1092 1163 1147 1174 1392 1391 1485 1427 1489 1667 1278 1444 1694 1630 1726 1843 1952 2032 1771 1695 1629 1747 1712 2003 2224
737 809 1082 1008 1065 1160 1183 1117 820 969 1216 1247 1318 415 285 341 607 683 1155 1224 1226 1307 1376 1492 1516 1582 1420 1221 1119 1598 1402 1540 1285 1658 1787 1635 1918 2004 1728 1792 2095 2306 2398
680 877 1137 1100 1120 1220 1011 1168 1047 747 748 933 981 1273 991 1061 1123 879 623 824 602 1101 1554 1480 1029 898 800 1151 1561 1203 992 1142 1007 1257 1611 1309 1902 2169 2024 1905 2322 2444 2405
724 837 860 1108 1224 1203 1117 917 1015 1005 1083 864 1057 682 844 919 1287 1324 1489 1209 1188 747 701 695 1034 1105 1211 1320 985 847 662 610 905 1258 1460 906 900 2006 2174 2202 2091 1984 1950
685 963 859 1112 1202 1260 825 689 600 600 763 674 577 807 1325 1313 1302 1085 1347 1258 1313 1380 1321 1442 1229 1176 1101 792 753 708 553 719 1072 1252 975 869 840 1269 1556 2048 1887 2086 2079
1277 1111 1022 937 1082 961 943 742 334 459 300 13 0 912 846 770 926 1300 1340 1186 1181 1197 1117 1139 974 925 890 742 547 508 635 1091 1439 1206 1208 1317 971 1173 1326 1706 1866 2002 2031
938 452 960 1134 1165 851 606 475 99 125 23 0 1 692 896 797 798 880 1059 827 571 1003 1120 1031 836 709 536 485 797 1015 999 1357 1380 1268 1555 1450 1641 1785 1670 1776 1506 1377 1518
633 770 947 1093 762 756 677 223 105 37 0 0 242 264 775 977 1290 607 486 548 580 1027 1187 848 755 725 696 793 1018 964 908 1342 971 1441 1489 931 1131 1675 1797 1766 1682 1683 1874
858 910 888 537 503 607 211 219 137 191 188 78 89 843 826 898 1064 1307 879 663 596 827 1082 953 908 946 994 1123 1205 875 1106 1133 1126 1308 1081 558 428 880 1277 1383 1297 1576 1644
767 815 507 178 233 176 292 100 2 27 69 44 232 1137 991 937 986 925 855 935 835 676 612 733 885 992 1036 601 515 139 383 1170 1274 360 945 571 789 935 1277 1720 1791 1744 1768
367 617 262 246 159 23 40 102 220 112 113 65 717 1114 1005 654 715 799 946 954 1132 932 816 694 666 837 1016 576 167 0 64 428 296 13 661 700 957 1356 1618 1675 1665 1704 1757
341 492 572 102 12 16 5 65 154 124 32 2 215 503 829 649 429 1226 673 285 1001 1249 1295 1338 1257 1236 1142 964 385 50 139 622 486 47 719 852 1408 2031 1806 1581 1825 2069 2230
121 267 516 433 24 3 6 9 12 49 20 146 379 253 752 846 545 0 216 137 1130 1083 1030 699 599 25 910 915 822 295 124 239 38 156 662 901 1491 2125 1907 1908 1372 1461 1678
191 97 253 375 6 0 0 0 0 218 104 270 576 454 787 422 213 305 242 424 512 11 54 21 0 92 1174 1011 1025 1075 300 50 112 372 378 1027 1204 1577 1631 1688 1767 1875 1881
303 225 199 135 66 108 6 5 30 72 305 171 368 644 456 1092 400 364 1475 843 534 134 290 486 540 1658 1292 625 1046 659 226 271 633 671 687 664 899 1195 1521 1650 1848 1609 1758
127 350 172 318 255 170 116 797 187 414 204 190 215 933 1080 1045 284 882 876 1645 915 233 1047 1898 997 1533 1111 926 652 554 220 351 1005 1303 1109 833 1133 1245 1232 1516 1507 1037 1007
342 306 24 200 60 4 105 330 376 51 150 366 950 1027 989 1166 1458 1376 1501 1067 1167 1558 1451 931 1391 2130 1452 1045 1059 705 866 530 1317 1725 1241 1118 1203 1058 1241 1387 1050 921 1142
71 327 62 46 29 157 434 1010 734 441 1000 232 469 1046 1155 1284 1391 974 969 1173 963 1310 919 901 1065 721 736 715 821 1109 765 1246 670 1752 1864 960 1340 1292 939 1210 1043 909 1177
70 192 96 37 23 164 682 475 781 170 379 870 454 925 967 937 855 1299 895 834 459 1188 1077 448 607 795 833 902 821 568 756 873 257 319 810 1207 1657 886 205 1078 1080 847 1320
34 107 107 5 27 203 198 440 475 1285 415 478 259 1027 1087 1225 706 421 713 671 339 1059 1242 1848 1271 944 898 978 1035 272 125 234 825 547 713 951 1242 1179 1304 1321 1181 975 1181
30 84 2 0 23 105 15 248 759 691 302 487 1217 1314 1236 1284 432 1035 930 816 436 838 860 1625 1704 1852 908 1461 353 9 0 0 76 872 1025 691 914 1036 1186 1540 1476 1226 943
0 29 67 36 1 76 14 264 1033 920 872 650 1561 1037 1147 1240 1301 1402 1270 1011 1145 1131 1137 1648 1892 1016 77 524 41 1 10 0 0 1 879 1278 848 1029 1207 900 1444 1516 1200
0 32 41 205 85 53 489 622 1147 1423 310 403 708 1407 1290 902 1257 1661 1120 1323 1310 919 183 628 1357 891 74 365 1200 854 26 11 0 27 697 704 780 950 787 766 1245 890 1412
0 0 0 309 437 86 850 1123 802 682 67 523 290 930 1265 940 1261 1620 1281 1287 1374 1300 494 590 1628 1447 1184 568 155 582 1463 597 407 144 786 801 642 1007 936 1044 819 1112 860
0 0 82 224 652 389 712 1220 828 817 989 304 1160 697 1576 1082 1381 1480 1498 1175 975 259 15 1471 1522 1292 1490 1089 1417 1035 935 26 0 149 458 892 794 1182 645 681 903 880 997
0 2 4 177 281 392 943 902 1186 939 550 926 840 791 863 1684 1164 1746 1676 1737 1350 200 0 1326 1743 2128 1500 1613 1244 1281 1313 386 75 481 650 600 681 1019 698 625 887 556 1156

GFSSE_con_mlcape_180.txt.gz
CAPE
331 992 1193 1466 1485 1328 1206 1186 1244 1203 1361 1394 1107 1048 1230 878 1008 1037 1136 1386 1328 1022 941 1647 1390 1410 1450 1070 966 1022 1436 1380 1064 1053 1474 1399 1667 1854 1764 1933 1848 1634 1885
632 1163 1383 1555 1421 1363 1149 1346 1131 1341 1248 618 652 763 729 1122 1297 1013 1147 1184 1531 1465 1374 1464 1582 1353 1187 1420 1244 1222 1436 1117 1225 1616 1779 1583 1587 1882 2194 2241 2155 2147 2233
594 1162 1352 1498 1568 1253 1204 1275 1287 1430 786 700 385 600 390 605 1105 1069 1162 1186 1253 1343 1449 1593 1501 1203 1031 1448 1375 1255 1424 1720 1977 1635 2082 1978 1716 2047 2454 2505 2460 2341 2601
652 1108 1315 1533 1459 1518 1075 894 983 854 1060 1055 876 1224 1391 913 432 702 546 906 1554 1458 1180 951 707 849 1629 1224 1236 831 898 1103 1285 1961 1728 1807 1858 2025 2537 2502 2579 2488 2581
657 984 1375 1505 1417 1422 1433 1308 1011 806 922 757 799 880 1165 1298 1435 902 809 845 534 602 617 973 1053 1365 955 683 785 739 773 1115 1252 1325 1035 1441 1985 2196 2490 2512 2599 2646 2628
529 1051 1619 1637 1505 1233 1014 1091 1162 999 977 1108 1225 1267 1304 1221 1317 1297 1163 1386 1485 1188 1413 1268 1021 870 634 583 346 439 638 1024 1063 941 866 1276 1562 2008 2172 2121 2211 2467 2548
542 1270 1445 1530 1339 1168 1077 963 861 788 514 1139 1028 1024 1150 1325 1326 1293 1205 1371 1250 1217 1145 810 1058 890 657 523 660 627 697 908 1113 827 827 847 1286 2460 2216 2326 2633 2555 2666
630 1030 1449 1400 1341 1088 819 902 785 162 181 784 1100 1036 880 770 976 1135 985 588 939 1226 1098 922 848 687 679 716 798 576 945 1077 925 868 964 789 1358 2116 2435 2305 2191 2231 2296
699 926 1203 1062 1049 894 368 437 307 24 6 409 666 869 1054 1330 650 415 477 538 637 1028 1093 927 746 765 566 773 458 416 841 883 649 543 964 1129 1473 1882 1968 1793 1584 1677 1816
779 661 653 800 949 615 429 391 58 35 33 240 900 831 607 857 1294 1218 606 526 481 551 766 935 873 672 498 730 298 399 730 659 53 183 533 599 1292 2027 2164 2046 1901 1946 1955
486 333 375 463 368 251 114 416 290 109 86 307 494 924 596 283 465 725 791 769 874 809 745 738 816 809 799 441 10 434 146 164 327 148 160 586 883 1666 1885 1876 1896 1891 1862
212 156 232 83 46 79 54 97 23 133 46 24 91 449 348 242 333 565 955 1280 1230 1319 1743 1557 761 799 1063 306 140 118 234 78 180 375 386 481 742 1465 1874 1964 2002 1870 1860
102 26 60 7 0 0 0 19 36 45 4 0 0 0 121 249 94 142 184 817 245 212 358 166 106 0 14 49 27 145 231 118 81 405 363 599 775 1436 2047 1928 1832 1996 1871
127 79 15 0 0 0 0 6 14 9 1 0 0 4 91 145 253 139 177 42 0 0 26 6 50 46 58 4 2 65 427 346 150 193 207 552 769 1300 1535 1901 1508 1373 1646
148 128 0 0 0 0 0 0 0 0 0 49 0 32 90 259 173 155 210 108 21 0 0 0 6 40 70 82 40 204 416 344 271 221 679 632 818 1030 1565 1583 1574 1692 1777
132 148 0 2 0 0 0 0 0 0 0 0 0 0 90 142 211 173 109 127 52 5 0 13 0 0 25 23 175 420 597 367 475 481 484 927 1026 1231 1595 1661 1826 1569 1593
9 30 44 0 0 0 0 0 0 0 30 51 49 0 132 352 291 383 223 239 145 1 28 13 44 21 39 292 568 464 440 320 623 259 35 488 727 1312 1314 1404 1104 1212 1126
0 0 54 2 0 0 0 49 49 35 21 87 179 267 201 427 678 670 655 416 364 191 142 120 95 31 201 62 192 171 173 393 560 454 356 225 110 169 944 1129 416 875 1108
12 2 39 33 32 37 10 37 53 0 10 74 124 412 539 741 441 388 606 664 368 299 431 122 127 97 467 239 48 30 2 144 357 217 607 90 58 0 190 768 311 645 1057
34 25 51 48 6 0 1 9 385 265 586 538 159 447 476 431 336 189 283 411 693 491 257 161 220 292 245 298 89 0 0 0 273 223 65 0 0 28 326 615 614 690 830
43 31 52 41 0 12 188 252 103 168 209 16 245 644 522 429 615 434 206 726 818 384 436 557 883 235 135 0 19 0 0 0 109 25 13 26 155 339 462 95 947 831 661
43 10 13 8 1 89 67 16 46 440 330 270 501 825 596 704 555 335 724 815 1009 757 595 551 403 0 2 39 36 6 0 0 0 0 199 288 325 700 767 757 838 638 492
10 27 5 8 0 16 8 0 66 602 295 173 304 436 909 938 894 1063 986 837 928 409 217 191 707 109 30 143 78 110 47 0 0 0 5 320 424 544 701 838 760 617 528
0 29 1 0 0 4 0 0 0 207 73 91 47 426 589 669 704 946 1150 958 765 508 106 174 625 460 185 201 131 9 40 46 0 16 156 495 362 337 480 763 788 574 554
0 5 0 0 0 0 0 0 59 400 200 0 21 18 162 443 769 1431 1040 666 635 275 577 57 34 394 253 393 179 236 189 5 0 117 101 411 517 464 431 598 723 699 573
0 0 25 0 0 0 0 0 99 700 557 177 47 419 407 785 906 1203 1017 997 543 202 283 190 569 793 732 577 683 648 531 60 0 64 219 219 262 379 562 485 476 478 354